Location: Cahas Mountain Overlook
(37.0833°N, 80.1000°W)
Time: 10:22:05
(UTC-04:00)

Vanguard 1 Rocket - Pass Details

Date: 09 February 2026
Orbit: 653 x 4214 km, 34.3° (Epoch: 15 March)

Event Time Altitude Azimuth Distance (km) Brightness Sun altitude
Rises 19:49:10 0° 281° (W) 7,014 13.3 -23.4°
Reaches altitude 10° 19:53:14 10° 279° (W) 6,345 12.7 -24.2°
Maximum altitude 20:16:11 71° 202° (SSW) 4,347 10.7 -28.8°
Enters shadow 20:32:03 32° 130° (SE) 5,483 10.8 -31.9°
